This is the latest recevied weather packets stored in our database for station/object NC4M. If no packets are shown the sender has not sent any weather packets the latest 10 day(s).
| Time | Temp. | Humidity | Pressure | Rain* | Wind** | Luminosity | Snow |
|---|---|---|---|---|---|---|---|
| 1787970967 | 18.89° C | 89% | 1020.9 hPa | 0 mm | - | 0 W/m² | - |
| 1787970667 | 18.89° C | 88% | 1020.7 hPa | 0 mm | - | 0 W/m² | - |
| 1787970366 | 18.89° C | 89% | 1020.9 hPa | 0 mm | - | 0 W/m² | - |
| 1787970065 | 18.89° C | 89% | 1020.7 hPa | 0 mm | - | 0 W/m² | - |
| 1787969764 | 19.44° C | 88% | 1020.6 hPa | 0 mm | - | 0 W/m² | - |
| 1787969463 | 19.44° C | 88% | 1020.7 hPa | 0 mm | - | 0 W/m² | - |
| 1787969164 | 19.44° C | 88% | 1020.5 hPa | 0 mm | - | 0 W/m² | - |
| 1787968859 | 19.44° C | 86% | 1020.6 hPa | 0 mm | - | 0 W/m² | - |
| 1787968558 | 19.44° C | 85% | 1020.7 hPa | 0 mm | - | 0 W/m² | - |
| 1787968253 | 20° C | 86% | 1020.6 hPa | 0 mm | - | 0 W/m² | - |
| 1787967949 | 20° C | 85% | 1020.3 hPa | 0 mm | - | 0 W/m² | - |
| 1787967645 | 20° C | 86% | 1020.5 hPa | 0 mm | - | 0 W/m² | - |
| 1787967344 | 20° C | 85% | 1020.2 hPa | 0 mm | - | 0 W/m² | - |
| 1787967040 | 20° C | 82% | 1020.1 hPa | 0 mm | - | 0 W/m² | - |
| 1787966737 | 20° C | 83% | 1020.2 hPa | 0 mm | - | 0 W/m² | - |
| 1787966438 | 20.56° C | 81% | 1020.1 hPa | 0 mm | - | 0 W/m² | - |
| 1787966137 | 20.56° C | 83% | 1020.2 hPa | 0 mm | - | 0 W/m² | - |
| 1787965837 | 20.56° C | 80% | 1020 hPa | 0 mm | - | 0 W/m² | - |
| 1787965531 | 21.11° C | 80% | 1020 hPa | 0 mm | - | 0 W/m² | - |
| 1787965227 | 21.11° C | 79% | 1020.5 hPa | 0 mm | - | 0 W/m² | - |
| 1787964921 | 21.67° C | 77% | 1020.1 hPa | 0 mm | - | 1 W/m² | - |
| 1787964616 | 21.67° C | 77% | 1020 hPa | 0 mm | - | 1 W/m² | - |
| 1787964310 | 21.67° C | 72% | 1020.1 hPa | 0 mm | - | 3 W/m² | - |
| 1787964009 | 22.22° C | 72% | 1020 hPa | 0 mm | - | 4 W/m² | - |
| 1787963704 | 22.22° C | 75% | 1020 hPa | 0 mm | - | 6 W/m² | - |
* Rain latest hour (hover to see other rain measurements)
** Current wind speed in m/s (hover to see current wind gust speed)